Regional Weather Roundup
Issued by NWS Northern Indiana

Home | Current Version | Previous Version | Graphics & Text | Print | Product List | Glossary On
Versions: 1 2 3 4 5 6 7 8 9 10 11 12 13 14 15 16 17 18 19 20 21 22 23 24 25 26 27 28 29 30 31 32 33 34 35 36 37 38 39 40 41 42 43 44 45 46 47 48 49 50
000
ASUS43 KIWX 290710
RWRIWX

KIWX WEATHER ROUNDUP
NATIONAL WEATHER SERVICE NORTHERN INDIANA
300 AM EDT WED JUL 29 2015

NOTE: "FAIR" INDICATES FEW OR NO CLOUDS BELOW 12,000 FEET WITH NO
SIGNIFICANT WEATHER AND/OR OBSTRUCTIONS TO VISIBILITY.

* THESE STATIONS ARE NOT UNDER NWS QUALITY CONTROL. THEY ALSO MAY NOT
  REPORT WEATHER SUCH AS PRECIPITATION OR FOG.

INZ001>027-290800-
NORTHERN INDIANA

CITY           SKY/WX    TMP DP  RH WIND       PRES   REMARKS
GARY*          MOCLDY    79  75  88 SE5       29.92F
VALPARAISO     MOCLDY    73  71  93 CALM      29.94F FOG
MICHIGAN CITY* PTCLDY    73  72  94 CALM      29.93F
LAPORTE*       PTCLDY    73  73 100 CALM      29.95F FOG
KNOX*          PTCLDY    72  72 100 CALM      29.93F
SOUTH BEND     MOCLDY    78  71  79 E5        29.94F
GOSHEN         PTCLDY    74  68  81 SE5       29.96F
MONTICELLO*    CLEAR     74  74 100 CALM      29.93F FOG
LOGANSPORT*    CLEAR     72  68  88 CALM      29.95F
ROCHESTER*     PTCLDY    75  75 100 CALM      29.95F
WARSAW*        PTCLDY    72  70  94 CALM      29.96F
ANGOLA*        CLEAR     73  66  78 SE3       29.98F
FORT WAYNE     PTCLDY    73  70  90 E6        29.97F
HUNTINGTON*    CLEAR     76  72  87 CALM      29.96F
PERU/GRISSOM   CLEAR     75  72  91 SE5       29.95F
MARION*        CLEAR     72  72  98 CALM      29.97F FOG

$$
INZ028>050-290800-
CENTRAL INDIANA

CITY           SKY/WX    TMP DP  RH WIND       PRES   REMARKS
LAFAYETTE      CLEAR     74  74 100 CALM      29.93F FOG
KOKOMO*        CLEAR     73  70  88 SE3       29.96F
MUNCIE*        CLEAR     73  71  93 CALM      29.97F
INDIANAPOLIS   MOCLDY    77  73  87 SE5       29.95F

$$
MIZ043>046-050>051-056>058-064>065-071>073-077>080-290800-
SOUTHWEST LOWER MICHIGAN

CITY           SKY/WX    TMP DP  RH WIND       PRES   REMARKS
BATTLE CREEK   CLOUDY    76  63  64 SE7       29.98F
BENTON HARBOR  MOCLDY    76  69  79 SE7       29.92F
COLDWATER*     PTCLDY    71  62  72 SE6       29.98F
HILLSDALE*     PTCLDY    72  65  78 SE3       30.00F
HOLLAND        CLOUDY    76  67  73 SE6       29.93F
GRAND RAPIDS   MOCLDY    74  66  76 S5        29.95F
KALAMAZOO      MOCLDY    75  65  70 S5        29.96F
STURGIS*       CLEAR     73  66  78 SE6       29.97F
THREE RIVERS*  FAIR      73  65  77 S3        29.96F

$$
OHZ001>008-015>018-024>025-290800-
NORTHWEST OHIO

CITY           SKY/WX    TMP DP  RH WIND       PRES   REMARKS
WAUSEON*       FAIR      68  68 100 CALM      29.99F
LIMA           CLEAR     71  66  84 SE3       29.99F

$$
AND FOR LAKE MICHIGAN COASTAL AND OPEN LAKE BUOY OBSERVATIONS

STATION/POSITION TEMP    WIND        PRES    VSBY  WAVE
                 AIR SEA DIR/SP/G                  HT/PER
                 (F)     (DEG/KT/KT) (MB)    (MI)  (FT/S)
CALUMET HARBOR    81     170/  3/  5   N/A
MICHIGAN CITY     80     140/  7/  8   N/A
BURNS HARBOR      80     170/  4/ 20 1013.9F
SAINT JOSEPH      77     140/  2/  4 1013.5F
4 MI NW BRIDGMAN  77 76  190/  8/ 10   N/A           1
MICHIGAN CITY     76 75  190/  4/  6   N/A           0

$$
&&



USA.gov is the U.S. government's official web portal to all federal, state and local government web resources and services.